Showing default

COSMOS 2613, 68763

Orbit data source: Space-Track

COSMOS 2613, 68763 is a payload satellite owned by VVKO VKS (CIS) in SSO that was launched on Thu, 16 Apr 2026 UTC via a SOYUZ-2-1B launch vehicle from the Plesetsk Missile And Space Complex (PKMTR). Payload-class satellites include a variety of spacecraft equipped with specific instruments for various scientific and technological missions. These include communications satellites like Starlink; space stations such as the ISS; scientific satellites like the Hubble; Earth observation satellites from companies like Planet Labs, Umbra, and HawkEye 360; GPS; miniature CubeSats for education and research; and military/defense satellites.

Loading next visibility...
Identifier
68763, 2026-083J
Orbit
SSO
Country
Flag of CISCIS
Related business
Manufacturer
Unknown (RU)
Mission
Operational spacecraft
Bus & Motor
UNK, Unknown motor
Mass
~500 kg wet, ~500 kg dry
Launch date (UTC)
2026-04-16 (1 month ago)
Launch vehicle
SOYUZ-2-1B
Launch site
Plesetsk Missile And Space Complex (PKMTR)
Object type
Payload
Rocket body
Debris
Shape & HBR
Unknown shape, 14.5 m
Radar Cross Section
RCS unknown

Expand to show TLE details & history
Last TLE update: 8 hours ago

TLE from 8 hours ago
0 COSMOS 2613
1 68763U 26083J   26138.69783154  .00001099  00000-0  76963-4 0  9996
2 68763  97.7759 276.4106 0010599 147.3390 212.8495 15.07343801  4763
Epoch: 2026-05-18T16:44Z
TLE epoch observation values (Epoch: 2026-05-18T16:44:52.645Z)
Latitude
0.00004°
Longitude
148.80888°
Altitude
553.55 km
Speed
7.582 km/s
True Right ascension
18h 25m 38s
True Declination
0° 00' 00"
Sunlit
Object was in full shadow at epoch
Visualization orbit readout
Latitude
Unknown
Longitude
Unknown
Altitude
Unknown
Speed
Unknown
Apparent Right ascension
Unknown
Apparent Declination
Unknown
Sunlit
N/A
Visualization observer readout
Local Sidereal Time
09:27:24
Azimuth
Unknown
Elevation
Unknown
Doppler factor
Unknown
Orbital elements
Apogee altitude
548.653 km
Perigee altitude
533.985 km
Semi-major axis
6,919.456 km
Eccentricity
0.00106
Inclination
97.7759°
RAAN
276.4106°
Arg. of periapsis
147.339°
True anomaly
212.78369°
Mean anomaly
212.8495°
Eccentric anomaly
212.81659°
Mean motion
3.77081 °/min
Orbital period
95.47 mins
BSTAR
0.000076963
Loading maneuver chart data...
Computing Atmospheric mass density...
Loading historical data...
Loading historical data...
Loading historical data...
Loading historical data...
Loading historical data...
Loading historical data...
Loading historical data...

Documentation

Showing up to 5 results
|